OBJECT AM, 62644

Orbit data source: Space-Track

You're viewing an Uncataloged Satellite

Recently launched and/or uncataloged satellites may have evolving metadata. Metadata may include but not limited to: Owner, Maufacturer, Bus, Motor, and Mission.

OBJECT AM, 62644 is a satellite in SSO that was launched on Tue, 14 Jan 2025 UTC via an FALCON 9 launch vehicle from the Air Force Western Test Range (AFWTR). Unknown objects in Earth's orbit typically refer to objects detected orbiting the Earth but have not yet been identified or cataloged. These objects could be anything from previously untracked satellites, spent rocket stages, debris from satellite collisions, or even natural meteoroids temporarily captured by Earth's gravity.

Loading next visibility...
Identifier
62644, 2025-009AM
Orbit
SSO
Last TLE update
14 hours ago
Origin
Flag of TBDUNKJ (TBD)
Manufacturer
Unknown (J)
Mission
Operational Commercial Imaging
Bus & Motor
CUBESAT 6U?, Unknown motor
Mass
~10 kg wet, ~10 kg dry
Launch date (UTC)
2025-01-14 (4 months ago)
Launch vehicle
FALCON 9
Launch site
Air Force Western Test Range (AFWTR)
Object type
Unknown
Shape & HBR
Box + 2 Pan, 0.3 m
Radar Cross Section
0.080 m², Small (<0.1 m²)

Expand to show TLE details & history

TLE from 14 hours ago
0 OBJECT AM
1 62644U 25009AM  25128.70007221  .00011124  00000-0  49593-3 0  9997
2 62644  97.4343 209.7537 0001133 255.9716 104.1394 15.21582154 17284
Epoch: 2025-05-08T16:48Z
Definitive object data (Epoch: 2025-05-08T16:48:06.238Z)
Latitude
-0.00005°
Longitude
90.96091°
Altitude
504.35 km
Speed
7.612 km/s
True Right ascension
13h 59m 00s
True Declination
0° 00' 00"
Sunlit
Object was in full shadow at TLE epoch
Visualization TLE readout
Latitude
-82.08743°
Longitude
-157.48987°
Altitude
528.614 km
Speed
7.598 km/s
Apparent Right ascension
02h 02m 47s
Apparent Declination
-64° 40' 51"
Sunlit
Object is in daylight
Visualization observer readout
Local Sidereal Time
14:44:47
Azimuth
169.573° S
Elevation
-64.494°
Doppler factor
1
Orbital elements
Apogee altitude
498.812 km
Perigee altitude
497.254 km
Semi-major axis
6,876.17 km
Eccentricity
0.0001133
Inclination
97.4343°
RAAN
209.7537°
Arg. of periapsis
255.9716°
True anomaly
104.15199°
Mean anomaly
104.1394°
Eccentric anomaly
104.14569°
Mean motion
3.80648 °/min
BSTAR
0.00049593
Orbital period
94.58 mins
Loading maneuver chart data...
Loading SW <> Apogee altitude chart data...
Loading historical data...
Loading historical data...
Loading historical data...
Loading historical data...
Loading historical data...
Loading historical data...
Loading historical data...

OBJECT AM Visibility forecast

Observer location: undefined°, undefined°

Span
Click to sort rows by Start time (UTC) header in descending order
Start Az.
Max El. time (UTC)
Max El. Az.
Max El.
End time (UTC)
End Az.
5 mins2025-05-09 18:37:56.170Z344.447° N2025-05-09 18:39:56.170Z274.501° WNW34.432°2025-05-09 18:42:56.170Z214.943° SW
5 mins2025-05-10 05:14:56.170Z150.428° SSE2025-05-10 05:16:56.170Z66.726° ENE41.961°2025-05-10 05:19:56.170Z355.746° N
|